Location: Byszew
(52.1813°N, 19.2693°E)
Time: 06:56:56
(UTC+00:00)

CAS-4B - Visible Passes

Search period start: 01 July 2022 00:00
Search period end: 11 July 2022 00:00
Orbit: 523 x 537 km, 43.0° (Epoch: 30 June)

Date Brightness Start Highest point End Pass type
(mag) Time Alt. Az. Time Alt. Az. Time Alt. Az.
01 Jul ? 01:10:44 10° S 01:12:48 14° SSE 01:14:52 10° SE visible
02 Jul ? 00:58:20 12° S 01:00:13 15° SSE 01:02:35 10° SE visible
03 Jul ? 00:46:07 14° S 00:47:38 16° SSE 00:50:13 10° ESE visible
04 Jul ? 00:33:55 16° S 00:35:04 18° SSE 00:37:49 10° ESE visible
05 Jul ? 00:21:41 18° S 00:22:29 19° SSE 00:25:22 10° ESE visible
06 Jul ? 00:09:30 20° S 00:09:54 20° S 00:12:54 10° ESE visible
06 Jul ? 23:57:22 21° S 23:57:22 21° S 00:00:23 10° ESE visible
07 Jul ? 01:33:33 10° WSW 01:36:33 20° S 01:39:34 10° SE visible
07 Jul ? 23:45:21 21° SSE 23:45:21 21° SSE 23:47:52 10° ESE visible
08 Jul ? 01:21:03 10° WSW 01:23:58 19° SSW 01:26:53 10° SE visible
08 Jul ? 23:33:34 18° SSE 23:33:34 18° SSE 23:35:19 10° SE visible
09 Jul ? 01:08:48 11° SW 01:11:22 18° SSW 01:14:09 10° SSE visible
09 Jul ? 23:22:15 12° SE 23:22:15 12° SE 23:22:45 10° SE visible
10 Jul ? 00:57:31 15° SW 00:58:46 17° SSW 01:01:23 10° SSE visible
